Home > Weather > Saint-Petersburg > Past weeks

Flag for Russia Past Weather in Saint-Petersburg, Russia — Yesterday and Last 2 Weeks

Now
64 °F

Partly cloudy.


Feels Like: 64 °F
Forecast: 64 / 75 °F
Wind: No wind

Location: St. Petersburg

Current Time: Jun 27, 2016 at 1:38:41 AM

Latest Report: Jun 27, 2016 at 1:00 AM


Visibility: N/A

Pressure: 29.89 "Hg

Humidity: 88%

Dew Point: 61 °F

Location of Saint-PetersburgLocation

Past Weather in Saint-Petersburg — Graph

°F

Saint-Petersburg Temperature Yesterday

Maximum temperature yesterday: 82 °F (at 1:00 PM)
Minimum temperature yesterday: 59 °F (at 3:30 AM)
Average temperature yesterday: 71 °F

High & Low Weather Summary for the Past Weeks

 TemperatureHumidityPressure
High82 °F (Jun 26, 1:00 PM)100% (Jun 17, 12:00 AM)30.27 "Hg (Jun 17, 12:00 AM)
Low39 °F (Jun 14, 2:30 AM)31% (Jun 15, 1:00 PM)29.53 "Hg (Jun 12, 4:00 AM)
Average64 °F73%29.89 "Hg
* Reported Jun 12 12:00 AM — Jun 27 12:30 AM, Saint-Petersburg, Weather by CustomWeather, © 2016

Note: Actual official high and low records may vary slightly from our data, if they occured in-between our weather recording intervals... More about our weather records

Advertising

Saint-Petersburg Weather History for the Previous 24 Hours

Scroll right to see more
 ConditionsComfort  
Time TempWeatherWind HumidityBarometerVisibility
12:30 AM
Mon, Jun 27
64 °FPartly cloudy.1 mph88%29.89 "HgN/A
12:00 AM66 °FPartly cloudy.1 mph83%29.89 "HgN/A
11:30 PM
Sun, Jun 26
66 °FPartly cloudy.3 mph83%29.89 "HgN/A
11:00 PM66 °FSprinkles. Partly cloudy.1 mph83%29.89 "HgN/A
10:30 PM66 °FSprinkles. Partly cloudy.3 mph88%29.89 "HgN/A
10:00 PM66 °FSprinkles. Broken clouds.3 mph83%29.89 "HgN/A
9:30 PM68 °FSprinkles. Broken clouds.3 mph83%29.89 "Hg6 mi
9:00 PM70 °FSprinkles. Scattered clouds.6 mph73%29.89 "HgN/A
8:30 PM70 °FScattered clouds.6 mph78%29.86 "HgN/A
8:00 PM70 °FScattered clouds.6 mph83%29.86 "HgN/A
7:30 PM72 °FScattered clouds.8 mph78%29.86 "HgN/A
7:00 PM72 °FScattered clouds.6 mph83%29.86 "HgN/A
6:30 PM72 °FThunderstorms. Partly sunny.8 mph88%29.89 "Hg6 mi
6:00 PM72 °FThunderstorms. Broken clouds.13 mph83%29.92 "Hg4 mi
5:30 PM77 °FThundershowers. Scattered clouds.8 mph65%29.89 "HgN/A
5:00 PM79 °FScattered clouds.10 mph61%29.89 "HgN/A
4:30 PM81 °FScattered clouds.8 mph62%29.86 "HgN/A
4:00 PM82 °FPassing clouds.8 mph58%29.89 "HgN/A
3:30 PM82 °FPassing clouds.6 mph58%29.89 "HgN/A
3:00 PM82 °FPassing clouds.8 mph58%29.89 "HgN/A
2:30 PM82 °FPassing clouds.6 mph58%29.89 "HgN/A
2:00 PM82 °FPassing clouds.3 mph58%29.92 "HgN/A
1:30 PM81 °FScattered clouds.6 mph58%29.92 "HgN/A
1:00 PM82 °FScattered clouds.6 mph58%29.92 "HgN/A
12:30 PM79 °FScattered clouds.1 mph61%29.95 "HgN/A
12:00 PM79 °FScattered clouds.1 mph61%29.95 "HgN/A
11:30 AM77 °FScattered clouds.1 mph65%29.95 "HgN/A
11:00 AM79 °FScattered clouds.1 mph61%29.95 "HgN/A
10:30 AM75 °FPartly sunny.1 mph65%29.95 "HgN/A
10:00 AM75 °FPartly sunny.1 mph65%29.95 "HgN/A
9:30 AM73 °FPartly sunny.1 mph69%29.95 "HgN/A
9:00 AM72 °FPartly sunny.1 mph78%29.95 "HgN/A
8:30 AM72 °FPartly sunny.1 mph73%29.95 "HgN/A
8:00 AM72 °FPartly sunny.3 mph69%29.95 "HgN/A
7:30 AM70 °FPartly sunny.1 mph78%29.98 "HgN/A
7:00 AM68 °FPartly sunny.1 mph83%29.98 "HgN/A
6:30 AM66 °FFog.No wind83%29.98 "HgN/A
6:00 AM64 °FFog.No wind94%29.98 "HgN/A
5:30 AM64 °FFog.1 mph88%29.98 "HgN/A
5:00 AM63 °FFog.1 mph88%29.98 "HgN/A
4:30 AM59 °FFog.3 mph94%29.98 "Hg4 mi
4:00 AM59 °FFog.1 mph94%29.98 "Hg3 mi
3:30 AM59 °FFog.No wind94%29.98 "Hg2 mi
3:00 AM61 °FFog.No wind88%29.98 "Hg2 mi
2:30 AM61 °FFog.3 mph94%29.98 "Hg2 mi
2:00 AM61 °FFog.No wind94%29.98 "Hg1 mi
1:30 AM61 °FFog.No wind100%29.98 "Hg1 mi
1:00 AM63 °FFog.1 mph94%29.98 "Hg1 mi
Weather by CustomWeather, © 2016

See weather overviewHow to use our weather pages